"2019-08-13 22:00:00",20,423.1698,13.33255
"2019-08-13 23:00:00",21,577.3036,11.59225
"2019-08-14 00:00:00",22,579.0334,11.4574
"2019-08-14 01:00:00",23,552.2764,11.4574
"2019-08-14 02:00:00",24,539.0104,11.47986
"2019-08-14 03:00:00",25,521.0491,11.38998
"2019-08-14 04:00:00",26,530.2089,11.41245
"2019-08-14 05:00:00",27,551.7561,11.38998
"2019-08-14 06:00:00",28,550.1528,11.14313
"2019-08-14 07:00:00",29,533.3893,10.96384
"2019-08-14 08:00:00",30,521.6501,11.0759
"2019-08-14 09:00:00",31,551.5081,11.0759
"2019-08-14 10:00:00",32,534.9183,10.91904
"2019-08-14 11:00:00",33,1101.316,11.14313
"2019-08-14 12:00:00",34,415.2501,10.69516
"2019-08-14 13:00:00",35,405.3621,11.09833
"2019-08-14 14:00:00",36,380.0059,11.14313
"2019-08-14 15:00:00",37,368.1754,11.21048
"2019-08-14 16:00:00",38,369.0709,11.38998
"2019-08-14 17:00:00",39,405.5631,11.34509
"2019-08-14 18:00:00",40,413.9764,11.38998
"2019-08-14 19:00:00",41,403.8131,11.38998
"2019-08-14 20:00:00",42,344.6466,11.43491
"2019-08-14 21:00:00",43,378.2026,11.36755
"2019-08-14 22:00:00",44,416.9952,11.3002
"2019-08-14 23:00:00",45,439.8877,11.27777
"2019-08-15 00:00:00",46,469.852,11.25534
"2019-08-15 01:00:00",47,493.5693,11.23288
"2019-08-15 02:00:00",48,499.4339,11.23288
"2019-08-15 03:00:00",49,507.7488,11.23288
"2019-08-15 04:00:00",50,512.9144,11.25534
"2019-08-15 05:00:00",51,520.4553,11.23288
"2019-08-15 06:00:00",52,528.1118,11.23288
"2019-08-15 07:00:00",53,528.1118,11.23288
"2019-08-15 08:00:00",54,538.5937,11.25534
"2019-08-15 09:00:00",55,540.0709,11.23288
"2019-08-15 10:00:00",56,543.263,11.23288
"2019-08-15 11:00:00",57,556.4451,11.23288
"2019-08-15 12:00:00",58,585.525,11.23288
"2019-08-15 13:00:00",59,570.2169,11.23288
"2019-08-15 14:00:00",60,534.2272,11.25534
"2019-08-15 15:00:00",61,533.5079,11.3002
"2019-08-15 16:00:00",62,486.7639,11.32266
"2019-08-15 17:00:00",63,456.4183,11.36755
"2019-08-15 18:00:00",64,462.1308,11.34509
"2019-08-15 19:00:00",65,428.0796,11.38998
"2019-08-15 20:00:00",66,417.5069,11.38998
"2019-08-15 21:00:00",67,411.8827,11.38998
"2019-08-15 22:00:00",68,408.3112,11.4574
"2019-08-15 23:00:00",69,436.4433,11.41245
"2019-08-16 00:00:00",70,461.1227,11.41245
"2019-08-16 01:00:00",71,482.2218,11.38998
"2019-08-16 02:00:00",72,488.2412,11.38998
"2019-08-16 03:00:00",73,491.3139,11.38998
"2019-08-16 04:00:00",74,490.5797,11.38998
"2019-08-16 05:00:00",75,491.2548,11.38998
"2019-08-16 06:00:00",76,489.3244,11.36755
"2019-08-16 07:00:00",77,471.7905,11.3002
"2019-08-16 08:00:00",78,382.7341,10.98624
"2019-08-16 09:00:00",79,394.0326,11.03107
"2019-08-16 10:00:00",80,396.5686,11.0759
"2019-08-16 11:00:00",81,393.1614,11.0759
"2019-08-16 12:00:00",82,396.1652,11.12073
"2019-08-16 13:00:00",83,422.7463,11.12073
"2019-08-16 14:00:00",84,421.7801,11.27777
"2019-08-16 15:00:00",85,405.0382,11.38998
"2019-08-16 16:00:00",86,402.0418,11.41245
"2019-08-16 17:00:00",87,453.7182,11.4574
"2019-08-16 18:00:00",88,516.8529,11.50232
"2019-08-16 19:00:00",89,539.283,11.47986
"2019-08-16 20:00:00",90,487.0544,11.47986
"2019-08-16 21:00:00",91,443.084,11.50232
"2019-08-16 22:00:00",92,436.4668,11.50232
"2019-08-16 23:00:00",93,488.8489,11.4574
"2019-08-17 00:00:00",94,498.9225,11.43491
"2019-08-17 01:00:00",95,512.7773,11.41245
"2019-08-17 02:00:00",96,498.2213,11.43491
"2019-08-17 03:00:00",97,450.3176,11.4574
"2019-08-17 04:00:00",98,464.0303,11.43491
"2019-08-17 05:00:00",99,468.5995,11.43491
"2019-08-17 06:00:00",100,476.7141,11.41245
"2019-08-17 07:00:00",101,470.7577,11.43491
"2019-08-17 08:00:00",102,490.1425,11.41245
"2019-08-17 09:00:00",103,498.6569,11.41245
"2019-08-17 10:00:00",104,480.9298,11.41245
"2019-08-17 11:00:00",105,434.8393,11.38998
"2019-08-17 12:00:00",106,443.2696,11.38998
"2019-08-17 13:00:00",107,434.2184,11.38998
"2019-08-17 14:00:00",108,432.6263,11.4574
"2019-08-17 15:00:00",109,437.1001,11.47986
"2019-08-17 16:00:00",110,438.1435,11.54727
"2019-08-17 17:00:00",111,422.9947,11.63721
"2019-08-17 18:00:00",112,410.0142,11.68219
"2019-08-17 19:00:00",113,395.4863,11.68219
"2019-08-17 20:00:00",114,372.7276,11.74966
"2019-08-17 21:00:00",115,346.5943,11.74966
"2019-08-17 22:00:00",116,343.327,11.74966
"2019-08-17 23:00:00",117,349.5695,11.70465
"2019-08-18 00:00:00",118,354.5466,11.72717
"2019-08-18 01:00:00",119,362.3795,11.72717
"2019-08-18 02:00:00",120,368.1358,11.70465
"2019-08-18 03:00:00",121,382.6249,11.68219
"2019-08-18 04:00:00",122,391.7278,11.68219
"2019-08-18 05:00:00",123,419.5647,11.68219
"2019-08-18 06:00:00",124,436.8082,11.61472
"2019-08-18 07:00:00",125,431.1591,11.59225
"2019-08-18 08:00:00",126,432.9435,11.59225
"2019-08-18 09:00:00",127,441.8301,11.54727
"2019-08-18 10:00:00",128,451.1381,11.52481
"2019-08-18 11:00:00",129,458.0265,11.52481
"2019-08-18 12:00:00",130,450.3297,11.12073
"2019-08-18 13:00:00",131,427.5615,11.03107
"2019-08-18 14:00:00",132,451.2818,11.36755
"2019-08-18 15:00:00",133,471.3069,11.59225
"2019-08-18 16:00:00",134,459.298,11.74966
"2019-08-18 17:00:00",135,477.172,11.86221
"2019-08-18 18:00:00",136,451.2109,12.42606
"2019-08-18 19:00:00",137,465.1124,12.33572
"2019-08-18 20:00:00",138,465.1124,12.33572
"2019-08-18 21:00:00",139,465.9568,11.97482
"2019-08-18 22:00:00",140,376.355,11.9523
"2019-08-18 23:00:00",141,350.8515,11.86221
"2019-08-19 00:00:00",142,333.4464,12.06497
"2019-08-19 01:00:00",143,353.4847,11.9523
"2019-08-19 02:00:00",144,365.4312,11.88474
"2019-08-19 03:00:00",145,395.1424,11.83969
"2019-08-19 04:00:00",146,362.8451,11.56976
"2019-08-19 05:00:00",147,372.9135,11.77219
"2019-08-19 06:00:00",148,377.4291,11.83969
"2019-08-19 07:00:00",149,363.4248,11.61472
"2019-08-19 08:00:00",150,362.3795,11.43491
"2019-08-19 09:00:00",151,368.8356,11.43491
"2019-08-19 10:00:00",152,387.2367,11.38998
"2019-08-19 11:00:00",153,395.1812,11.23288
"2019-08-19 12:00:00",154,400.2749,11.0759
"2019-08-19 13:00:00",155,415.8804,11.27777
"2019-08-19 14:00:00",156,407.9554,11.32266
"2019-08-19 15:00:00",157,402.5802,11.18802
"2019-08-19 16:00:00",158,401.7018,11.36755
"2019-08-19 17:00:00",159,399.0401,11.61472
"2019-08-19 18:00:00",160,405.4665,11.97482
"2019-08-19 19:00:00",161,423.6086,12.04242
"2019-08-19 20:00:00",162,391.6812,12.1777
"2019-08-19 21:00:00",163,385.9823,12.15515
"2019-08-19 22:00:00",164,373.7162,12.1326
"2019-08-19 23:00:00",165,374.3614,12.04242
"2019-08-20 00:00:00",166,384.4297,11.92978
"2019-08-20 01:00:00",167,390.2288,11.88474
"2019-08-20 02:00:00",168,388.3829,11.83969
"2019-08-20 03:00:00",169,387.5135,11.77219
"2019-08-20 04:00:00",170,384.3453,11.70465
"2019-08-20 05:00:00",171,380.9182,11.68219
"2019-08-20 06:00:00",172,377.3456,11.61472
"2019-08-20 07:00:00",173,369.0355,11.54727
"2019-08-20 08:00:00",174,367.6439,11.47986
"2019-08-20 09:00:00",175,365.291,11.47986
"2019-08-20 10:00:00",176,361.2608,11.4574
"2019-08-20 11:00:00",177,363.3169,11.50232
"2019-08-20 12:00:00",178,370.9175,11.43491
"2019-08-20 13:00:00",179,346.1013,11.27777
"2019-08-20 14:00:00",180,348.8418,11.63721
"2019-08-20 15:00:00",181,370.6329,11.74966
"2019-08-20 16:00:00",182,412.8074,11.79468
"2019-08-20 17:00:00",183,421.4574,12.1326
"2019-08-20 18:00:00",184,422.5769,12.29056
"2019-08-20 19:00:00",185,363.3889,12.20029
"2019-08-20 20:00:00",186,352.0616,12.1777
"2019-08-20 21:00:00",187,341.1103,12.11008
"2019-08-20 22:00:00",188,300.6416,12.22287
"2019-08-20 23:00:00",189,315.7195,12.20029
"2019-08-21 00:00:00",190,299.5838,11.88474
"2019-08-21 01:00:00",191,299.8585,11.86221
"2019-08-21 02:00:00",192,304.2901,11.86221
"2019-08-21 03:00:00",193,318.9548,11.92978
"2019-08-21 04:00:00",194,334.563,11.74966
"2019-08-21 05:00:00",195,353.2213,11.61472
"2019-08-21 06:00:00",196,354.2639,11.56976
"2019-08-21 07:00:00",197,361.2471,11.50232
"2019-08-21 08:00:00",198,373.1809,11.41245
"2019-08-21 09:00:00",199,386.8045,11.47986
"2019-08-21 10:00:00",200,394.1302,11.3002
"2019-08-21 11:00:00",201,400.9716,11.27777
"2019-08-21 12:00:00",202,412.6923,11.52481
"2019-08-21 13:00:00",203,397.7069,11.4574
"2019-08-21 14:00:00",204,368.5819,11.81717
"2019-08-21 15:00:00",205,359.6508,11.86221
"2019-08-21 16:00:00",206,353.0584,11.92978
"2019-08-21 17:00:00",207,322.8592,11.90726
"2019-08-21 18:00:00",208,315.0716,11.9523
"2019-08-21 19:00:00",209,339.7511,12.04242
"2019-08-21 20:00:00",210,342.3725,12.1326
"2019-08-21 21:00:00",211,332.8962,12.11008
"2019-08-21 22:00:00",212,327.5178,12.15515
"2019-08-21 23:00:00",213,322.5058,12.08752
"2019-08-22 00:00:00",214,347.7876,11.9523
"2019-08-22 01:00:00",215,378.225,11.79468
"2019-08-22 02:00:00",216,376.1948,11.77219
"2019-08-22 03:00:00",217,371.4277,11.72717
"2019-08-22 04:00:00",218,372.5668,11.70465
"2019-08-22 05:00:00",219,381.8174,11.65967
"2019-08-22 06:00:00",220,379.5491,11.61472
"2019-08-22 07:00:00",221,397.1143,11.50232
"2019-08-22 08:00:00",222,413.2151,11.47986
"2019-08-22 09:00:00",223,413.2151,11.47986
"2019-08-22 10:00:00",224,435.2107,11.34509
"2019-08-22 11:00:00",225,464.0897,11.0759
"2019-08-22 12:00:00",226,458.0479,11.0759
"2019-08-22 13:00:00",227,451.3593,11.16559
"2019-08-22 14:00:00",228,445.6178,11.36755
"2019-08-22 15:00:00",229,458.0061,11.25534
"2019-08-22 16:00:00",230,440.6016,11.50232
"2019-08-22 17:00:00",231,434.5465,11.63721
"2019-08-22 18:00:00",232,419.6603,11.9523
"2019-08-22 19:00:00",233,424.9783,12.1326
"2019-08-22 20:00:00",234,417.7302,12.20029
"2019-08-22 21:00:00",235,415.7179,12.20029
"2019-08-22 22:00:00",236,394.9955,12.04242
"2019-08-22 23:00:00",237,403.123,11.92978
"2019-08-23 00:00:00",238,422.5936,11.86221
"2019-08-23 01:00:00",239,434.4742,11.90726
"2019-08-23 02:00:00",240,430.6262,11.83969
"2019-08-23 03:00:00",241,429.4071,11.88474
"2019-08-23 04:00:00",242,439.5273,11.79468
"2019-08-23 05:00:00",243,455.5972,11.70465
"2019-08-23 06:00:00",244,476.1875,11.72717
"2019-08-23 07:00:00",245,453.8318,11.52481
"2019-08-23 08:00:00",246,434.205,11.43491
"2019-08-23 09:00:00",247,434.0808,11.38998
"2019-08-23 10:00:00",248,446.5197,11.59225
"2019-08-23 11:00:00",249,462.7197,11.36755
"2019-08-23 12:00:00",250,467.1973,11.05347
"2019-08-23 13:00:00",251,468.1447,10.98624
"2019-08-23 14:00:00",252,450.4012,11.4574
"2019-08-23 15:00:00",253,448.1404,11.50232
"2019-08-23 16:00:00",254,473.1,11.27777
"2019-08-23 17:00:00",255,451.9274,11.99738
"2019-08-23 18:00:00",256,448.2691,12.1326
"2019-08-23 19:00:00",257,417.6813,12.06497
"2019-08-23 20:00:00",258,401.7399,11.86221
"2019-08-23 21:00:00",259,402.3683,11.86221
"2019-08-23 22:00:00",260,414.3024,11.88474
"2019-08-23 23:00:00",261,443.5439,11.97482
"2019-08-24 00:00:00",262,434.7159,11.41245
"2019-08-24 01:00:00",263,445.0941,11.32266
"2019-08-24 02:00:00",264,423.1089,11.70465
"2019-08-24 03:00:00",265,448.0846,11.63721
"2019-08-24 04:00:00",266,447.5074,11.68219
"2019-08-24 05:00:00",267,429.0786,11.88474
"2019-08-24 06:00:00",268,424.8492,11.90726
"2019-08-24 07:00:00",269,417.1238,11.99738
"2019-08-24 08:00:00",270,420.3504,11.88474
"2019-08-24 09:00:00",271,425.6909,11.65967
"2019-08-24 10:00:00",272,425.3244,11.9523
"2019-08-24 11:00:00",273,426.2369,11.9523
"2019-08-24 12:00:00",274,426.412,12.04242
"2019-08-24 13:00:00",275,422.3165,12.04242
"2019-08-24 14:00:00",276,416.0104,11.79468
"2019-08-24 15:00:00",277,420.7823,11.92978
"2019-08-24 16:00:00",278,426.047,11.9523
"2019-08-24 17:00:00",279,429.4934,12.0199
"2019-08-24 18:00:00",280,437.68,12.1777
"2019-08-24 19:00:00",281,426.0079,12.20029
"2019-08-24 20:00:00",282,409.6554,12.22287
"2019-08-24 21:00:00",283,409.8799,12.31311
"2019-08-24 22:00:00",284,403.7041,12.24542
"2019-08-24 23:00:00",285,408.9893,12.31311
"2019-08-25 00:00:00",286,405.8386,12.29056
"2019-08-25 01:00:00",287,383.4692,12.31311
"2019-08-25 02:00:00",288,376.8597,12.24542
"2019-08-25 03:00:00",289,391.7866,12.1777
"2019-08-25 04:00:00",290,407.9755,12.15515
"2019-08-25 05:00:00",291,446.4481,11.99738
"2019-08-25 06:00:00",292,556.2344,11.70465
"2019-08-25 07:00:00",293,562.6356,11.63721
"2019-08-25 08:00:00",294,552.331,11.56976
"2019-08-25 09:00:00",295,554.279,11.56976
"2019-08-25 10:00:00",296,536.34,11.52481
"2019-08-25 11:00:00",297,526.1755,11.47986
"2019-08-25 12:00:00",298,532.8163,11.34509
"2019-08-25 13:00:00",299,516.6027,11.38998
"2019-08-25 14:00:00",300,512.4001,11.52481
"2019-08-25 15:00:00",301,492.0632,11.56976
"2019-08-25 16:00:00",302,449.5235,11.77219
"2019-08-25 17:00:00",303,464.4279,11.86221
"2019-08-25 18:00:00",304,447.4271,12.04242
"2019-08-25 19:00:00",305,433.685,12.15515
"2019-08-25 20:00:00",306,421.9515,12.20029
"2019-08-25 21:00:00",307,420.9141,12.1326
"2019-08-25 22:00:00",308,420.9141,12.1326
"2019-08-25 23:00:00",309,424.2365,12.06497
"2019-08-26 00:00:00",310,436.2079,12.08752
"2019-08-26 01:00:00",311,439.2048,12.0199
"2019-08-26 02:00:00",312,440.6209,11.99738
"2019-08-26 03:00:00",313,438.2096,11.97482
"2019-08-26 04:00:00",314,439.4583,11.97482
"2019-08-26 05:00:00",315,444.178,11.90726
"2019-08-26 06:00:00",316,434.0427,11.90726
"2019-08-26 07:00:00",317,430.3242,11.90726
"2019-08-26 08:00:00",318,427.7639,11.88474
"2019-08-26 09:00:00",319,427.2349,11.88474
"2019-08-26 10:00:00",320,426.1696,11.83969
"2019-08-26 11:00:00",321,429.7111,11.83969
"2019-08-26 12:00:00",322,429.5894,11.81717
"2019-08-26 13:00:00",323,424.1019,11.81717
"2019-08-26 14:00:00",324,425.3594,11.81717
"2019-08-26 15:00:00",325,417.4633,11.86221
"2019-08-26 16:00:00",326,416.7558,11.90726
"2019-08-26 17:00:00",327,417.9302,11.9523
"2019-08-26 18:00:00",328,416.6206,11.99738
"2019-08-26 19:00:00",329,413.7505,11.99738
"2019-08-26 20:00:00",330,412.7417,12.0199
"2019-08-26 21:00:00",331,417.6543,12.08752
"2019-08-26 22:00:00",332,421.015,12.08752
"2019-08-26 23:00:00",333,418.1556,12.08752
"2019-08-27 00:00:00",334,418.7483,12.06497
"2019-08-27 01:00:00",335,413.1361,12.0199
"2019-08-27 02:00:00",336,409.335,11.99738
"2019-08-27 03:00:00",337,404.6309,11.97482
"2019-08-27 04:00:00",338,412.8971,11.99738
"2019-08-27 05:00:00",339,420.6581,11.83969
"2019-08-27 06:00:00",340,421.0818,11.65967
"2019-08-27 07:00:00",341,435.9489,11.52481
"2019-08-27 08:00:00",342,455.8961,11.34509
"2019-08-27 09:00:00",343,444.5737,11.54727
"2019-08-27 10:00:00",344,455.3786,11.59225
"2019-08-27 11:00:00",345,457.8796,11.54727
"2019-08-27 12:00:00",346,453.5153,11.68219
"2019-08-27 13:00:00",347,443.7397,11.83969
"2019-08-27 14:00:00",348,444.7397,11.88474
"2019-08-27 15:00:00",349,458.8197,12.0199
"2019-08-27 16:00:00",350,468.0779,12.31311
"2019-08-27 17:00:00",351,468.3303,12.31311
"2019-08-27 18:00:00",352,461.7565,12.29056
"2019-08-27 19:00:00",353,482.2075,13.1962
"2019-08-27 20:00:00",354,482.1599,13.28708
"2019-08-27 21:00:00",355,478.2141,13.15079
"2019-08-27 22:00:00",356,470.8053,12.94659
"2019-08-27 23:00:00",357,471.0635,12.74271
"2019-08-28 00:00:00",358,471.3297,12.53906
"2019-08-28 01:00:00",359,469.7756,12.44867
"2019-08-28 02:00:00",360,467.6086,12.35828
"2019-08-28 03:00:00",361,492.1572,12.94659
"2019-08-28 04:00:00",362,473.7103,12.51648
"2019-08-28 05:00:00",363,495.1907,12.72006
"2019-08-28 06:00:00",364,493.2679,12.78799
"2019-08-28 07:00:00",365,493.6108,12.6748
"2019-08-28 08:00:00",366,482.3351,12.04242
"2019-08-28 09:00:00",367,479.6426,12.06497
"2019-08-28 10:00:00",368,485.2876,12.24542
"2019-08-28 11:00:00",369,497.4276,12.31311
"2019-08-28 12:00:00",370,513.3033,12.31311
"2019-08-28 13:00:00",371,495.5113,12.29056
"2019-08-28 14:00:00",372,505.2047,12.35828
"2019-08-28 15:00:00",373,486.8472,12.33572
"2019-08-28 16:00:00",374,469.6176,12.24542
"2019-08-28 17:00:00",375,458.1318,12.24542
"2019-08-28 18:00:00",376,452.8386,12.15515
"2019-08-28 19:00:00",377,459.0843,12.15515
"2019-08-28 20:00:00",378,474.3236,12.15515
"2019-08-28 21:00:00",379,476.8389,12.1777
"2019-08-28 22:00:00",380,465.7487,12.1777
"2019-08-28 23:00:00",381,451.236,12.06497
"2019-08-29 00:00:00",382,443.1317,11.97482
"2019-08-29 01:00:00",383,436.4419,11.9523
"2019-08-29 02:00:00",384,427.8259,11.90726
"2019-08-29 03:00:00",385,421.9352,11.88474
"2019-08-29 04:00:00",386,424.621,12.0199
"2019-08-29 05:00:00",387,419.36,11.9523
"2019-08-29 06:00:00",388,423.9732,11.90726
"2019-08-29 07:00:00",389,447.1162,11.86221
"2019-08-29 08:00:00",390,454.8487,11.81717
"2019-08-29 09:00:00",391,451.1797,11.81717
"2019-08-29 10:00:00",392,449.983,11.81717
"2019-08-29 11:00:00",393,449.983,11.81717
"2019-08-29 12:00:00",394,441.8127,11.63721
"2019-08-29 13:00:00",395,437.5195,11.59225
"2019-08-29 14:00:00",396,429.8708,11.83969
"2019-08-29 15:00:00",397,429.1964,11.97482
"2019-08-29 16:00:00",398,428.4041,12.11008
"2019-08-29 17:00:00",399,428.524,12.1777
"2019-08-29 18:00:00",400,431.0732,12.22287
"2019-08-29 19:00:00",401,429.5415,12.24542
"2019-08-29 20:00:00",402,423.5089,12.22287
"2019-08-29 21:00:00",403,420.757,12.20029
"2019-08-29 22:00:00",404,421.1253,12.11008
"2019-08-29 23:00:00",405,431.4961,12.08752
"2019-08-30 00:00:00",406,433.4584,12.20029
"2019-08-30 01:00:00",407,411.9928,12.15515
"2019-08-30 02:00:00",408,379.984,12.06497
"2019-08-30 03:00:00",409,399.4982,11.97482
"2019-08-30 04:00:00",410,417.8467,11.86221
"2019-08-30 05:00:00",411,441.2951,11.79468
"2019-08-30 06:00:00",412,443.5439,11.77219
"2019-08-30 07:00:00",413,439.9367,11.79468
"2019-08-30 08:00:00",414,445.6122,11.77219
"2019-08-30 09:00:00",415,456.6381,11.70465
"2019-08-30 10:00:00",416,459.408,11.68219
"2019-08-30 11:00:00",417,460.3813,11.63721
"2019-08-30 12:00:00",418,459.1559,11.61472
"2019-08-30 13:00:00",419,457.4146,11.63721
"2019-08-30 14:00:00",420,454.6744,11.65967
"2019-08-30 15:00:00",421,450.4885,11.70465
"2019-08-30 16:00:00",422,462.1227,11.77219
"2019-08-30 17:00:00",423,481.0748,11.81717
"2019-08-30 18:00:00",424,524.4498,11.77219
"2019-08-30 19:00:00",425,541.7885,11.83969
"2019-08-30 20:00:00",426,494.9749,11.90726
"2019-08-30 21:00:00",427,483.9613,11.92978
"2019-08-30 22:00:00",428,495.2693,11.88474
"2019-08-30 23:00:00",429,559.4745,11.74966
"2019-08-31 00:00:00",430,582.4301,11.81717
"2019-08-31 01:00:00",431,538.6895,11.79468
"2019-08-31 02:00:00",432,574.1727,11.70465
"2019-08-31 03:00:00",433,611.6381,11.63721
"2019-08-31 04:00:00",434,630.7897,11.61472
"2019-08-31 05:00:00",435,641.8522,11.59225
"2019-08-31 06:00:00",436,653.8553,11.52481
"2019-08-31 07:00:00",437,663.6273,11.50232
"2019-08-31 08:00:00",438,681.6736,11.50232
"2019-08-31 09:00:00",439,706.0066,11.4574
"2019-08-31 10:00:00",440,724.4664,11.43491
"2019-08-31 11:00:00",441,733.7952,11.41245
"2019-08-31 12:00:00",442,740.6287,11.38998
"2019-08-31 13:00:00",443,751.7944,11.38998
"2019-08-31 14:00:00",444,744.5288,11.38998
"2019-08-31 15:00:00",445,724.7914,11.43491
"2019-08-31 16:00:00",446,701.1865,11.50232
"2019-08-31 17:00:00",447,697.0682,11.52481
"2019-08-31 18:00:00",448,697.6988,11.54727
"2019-08-31 19:00:00",449,702.8661,11.56976
"2019-08-31 20:00:00",450,708.8436,11.59225
"2019-08-31 21:00:00",451,718.1548,11.59225
"2019-08-31 22:00:00",452,725.3666,11.59225
"2019-08-31 23:00:00",453,770.3016,11.54727
"2019-09-01 00:00:00",454,780.2604,11.52481
"2019-09-01 01:00:00",455,767.4816,11.52481
"2019-09-01 02:00:00",456,758.6898,11.50232
"2019-09-01 03:00:00",457,732.6954,11.47986
"2019-09-01 04:00:00",458,737.3507,11.4574
"2019-09-01 05:00:00",459,755.8687,11.41245
"2019-09-01 06:00:00",460,771.7615,11.38998
"2019-09-01 07:00:00",461,805.4216,11.36755
"2019-09-01 08:00:00",462,826.0036,11.34509
"2019-09-01 09:00:00",463,846.5049,11.3002
"2019-09-01 10:00:00",464,855.0708,11.27777
"2019-09-01 11:00:00",465,876.5644,11.27777
"2019-09-01 12:00:00",466,888.9481,11.25534
"2019-09-01 13:00:00",467,874.9385,11.23288
"2019-09-01 14:00:00",468,850.9709,11.25534
"2019-09-01 15:00:00",469,835.451,11.27777
"2019-09-01 16:00:00",470,815.7054,11.32266
"2019-09-01 17:00:00",471,790.1549,11.34509
"2019-09-01 18:00:00",472,801.5615,11.36755
"2019-09-01 19:00:00",473,826.6664,11.38998
"2019-09-01 20:00:00",474,850.7481,11.38998
"2019-09-01 21:00:00",475,866.2045,11.36755
"2019-09-01 22:00:00",476,877.843,11.38998
"2019-09-01 23:00:00",477,926.3395,11.34509
"2019-09-02 00:00:00",478,926.3395,11.34509
"2019-09-02 01:00:00",479,1005.645,11.32266
"2019-09-02 02:00:00",480,1055.786,11.27777
"2019-09-02 03:00:00",481,1064.165,11.23288
"2019-09-02 04:00:00",482,1037.042,11.23288
"2019-09-02 05:00:00",483,1052.579,11.21048
"2019-09-02 06:00:00",484,1061.661,11.18802
"2019-09-02 07:00:00",485,1073.298,11.16559
"2019-09-02 08:00:00",486,1088.433,11.14313
"2019-09-02 09:00:00",487,1104.123,11.16559
"2019-09-02 10:00:00",488,1112.384,11.12073
"2019-09-02 11:00:00",489,1125.631,11.12073
"2019-09-02 12:00:00",490,1121.832,11.12073
"2019-09-02 13:00:00",491,1117.477,11.14313
"2019-09-02 14:00:00",492,1103.222,11.14313
"2019-09-02 15:00:00",493,1095.279,11.16559
"2019-09-02 16:00:00",494,1079.706,11.18802
"2019-09-02 17:00:00",495,1063.283,11.23288
"2019-09-02 18:00:00",496,1042.974,11.27777
"2019-09-02 19:00:00",497,996.5069,11.3002
"2019-09-02 20:00:00",498,990.2062,11.27777
"2019-09-02 21:00:00",499,1017.482,11.25534
"2019-09-02 22:00:00",500,1043.707,11.23288
"2019-09-02 23:00:00",501,1079.796,11.21048
"2019-09-03 00:00:00",502,1093.643,11.21048
"2019-09-03 01:00:00",503,1065.117,11.23288
"2019-09-03 02:00:00",504,1068.645,11.23288
"2019-09-03 03:00:00",505,1074.323,11.21048
"2019-09-03 04:00:00",506,1105.792,11.21048
"2019-09-03 05:00:00",507,1121.399,11.21048
"2019-09-03 06:00:00",508,1157.412,11.18802
"2019-09-03 07:00:00",509,1170.482,11.14313
"2019-09-03 08:00:00",510,1196.493,11.16559
"2019-09-03 09:00:00",511,1197.758,11.12073
"2019-09-03 10:00:00",512,1199.011,11.12073
"2019-09-03 11:00:00",513,1191.646,11.09833
"2019-09-03 12:00:00",514,1128.358,11.14313
"2019-09-03 13:00:00",515,1116.372,11.14313
"2019-09-03 14:00:00",516,1102.571,11.16559
"2019-09-03 15:00:00",517,1103.118,11.18802
"2019-09-03 16:00:00",518,1133.545,11.21048
"2019-09-03 17:00:00",519,1138.77,11.27777
"2019-09-03 18:00:00",520,1126.089,11.3002
"2019-09-03 19:00:00",521,1116.276,11.3002
"2019-09-03 20:00:00",522,1104.124,11.25534
"2019-09-03 21:00:00",523,1124.79,11.21048
"2019-09-03 22:00:00",524,1077.095,11.12073
"2019-09-03 23:00:00",525,1042.373,11.03107
"2019-09-04 00:00:00",526,1054.68,10.96384
"2019-09-04 01:00:00",527,1020.279,10.89661
"2019-09-04 02:00:00",528,1003.91,10.89661
"2019-09-04 03:00:00",529,1017.417,10.87424
"2019-09-04 04:00:00",530,1034.313,10.85184
"2019-09-04 05:00:00",531,1052.659,10.85184
"2019-09-04 06:00:00",532,1078.488,10.87424
"2019-09-04 07:00:00",533,1107.169,10.89661
"2019-09-04 08:00:00",534,1056.457,10.76227
"2019-09-04 09:00:00",535,752.5129,9.935638
"2019-09-04 10:00:00",536,1007.805,10.65039
"2019-09-04 11:00:00",537,1091.141,10.78467
"2019-09-04 12:00:00",538,1103.999,10.69516
"2019-09-04 13:00:00",539,1108.438,10.87424
"2019-09-04 14:00:00",540,1096.536,10.87424
"2019-09-04 15:00:00",541,818.6717,10.42679
"2019-09-04 16:00:00",542,917.0234,10.80704
"2019-09-04 17:00:00",543,1006.342,11.00867
"2019-09-04 18:00:00",544,1020.009,11.14313
"2019-09-04 19:00:00",545,1032.99,11.27777
"2019-09-04 20:00:00",546,1017.314,11.16559
"2019-09-04 21:00:00",547,973.0691,11.43491
"2019-09-04 22:00:00",548,987.397,11.27777
"2019-09-04 23:00:00",549,991.9832,11.14313
"2019-09-05 00:00:00",550,983.7487,11.12073
"2019-09-05 01:00:00",551,984.7894,11.09833
"2019-09-05 02:00:00",552,994.5001,11.05347
"2019-09-05 03:00:00",553,1000.683,11.03107
"2019-09-05 04:00:00",554,1003.099,10.98624
"2019-09-05 05:00:00",555,1037.913,10.94144
"2019-09-05 06:00:00",556,1052.984,10.98624